Home   Weather   Mülheim / Ruhr   Past weeks

Flag for Germany Past Weather in Mülheim / Ruhr, North Rhine-Westphalia, Germany — Yesterday and Last 2 Weeks

Now
46 °F

Partly sunny.


Feels Like: 40 °F
Forecast: 48 / 51 °F
Wind: 15 mph from Southwest

Location: Duesseldorf

Current Time: Feb 20, 2017 at 9:54:45 am

Latest Report: Feb 20, 2017 at 9:20 am


Visibility: 4 mi

Pressure: 30.07 "Hg

Humidity: 93%

Dew Point: 45 °F

Location of Mülheim / RuhrLocation

Past Weather in Mülheim / Ruhr — Graph

°F

Mülheim / Ruhr Temperature Yesterday

Maximum temperature yesterday: 46 °F (at 11:50 am)
Minimum temperature yesterday: 34 °F (at 5:50 am)
Average temperature yesterday: 41 °F

High & Low Weather Summary for the Past Weeks

 TemperatureHumidityPressure
High61 °F (Feb 15, 3:50 pm)100% (Feb 6, 9:20 am)30.51 "Hg (Feb 6, 9:20 am)
Low27 °F (Feb 13, 5:50 am)38% (Feb 14, 3:50 pm)29.59 "Hg (Feb 5, 8:20 am)
Average40 °F78%30.22 "Hg
* Reported Feb 5 8:20 am — Feb 20 8:20 am, Mülheim / Ruhr, Weather by CustomWeather, © 2017

Note: Actual official high and low records may vary slightly from our data, if they occured in-between our weather recording intervals... More about our weather records

Advertising

Mülheim / Ruhr Weather History for the Previous 24 Hours

Scroll right to see more
 ConditionsComfort  
Time TempWeatherWind HumidityBarometerVisibility
8:20 am
Mon, Feb 20
45 °FDrizzle. Fog.14 mph100%30.09 "Hg2 mi
7:50 am46 °FPartly sunny.14 mph87%30.09 "Hg6 mi
7:20 am45 °FPassing clouds.14 mph93%30.09 "HgN/A
6:50 am45 °FPassing clouds.15 mph93%30.07 "HgN/A
6:20 am45 °FPassing clouds.13 mph93%30.09 "HgN/A
5:50 am45 °FLight rain. Passing clouds.9 mph93%30.09 "Hg6 mi
5:20 am45 °FPartly cloudy.9 mph87%30.09 "HgN/A
4:50 am45 °FPassing clouds.10 mph93%30.12 "HgN/A
4:20 am45 °FPassing clouds.12 mph93%30.09 "Hg6 mi
3:50 am45 °FPassing clouds.10 mph93%30.12 "Hg4 mi
3:20 am45 °FPassing clouds.9 mph93%30.12 "Hg4 mi
2:50 am45 °FLight rain. Passing clouds.10 mph93%30.12 "Hg4 mi
2:20 am45 °FFog.8 mph93%30.15 "Hg3 mi
1:50 am43 °FFog.7 mph93%30.15 "Hg3 mi
1:20 am43 °FFog.6 mph93%30.15 "Hg3 mi
12:50 am43 °FFog.6 mph93%30.15 "Hg3 mi
12:20 am43 °FFog.7 mph93%30.15 "Hg3 mi
11:50 pm
Sun, Feb 19
43 °FFog.8 mph93%30.15 "Hg3 mi
11:20 pm45 °FPassing clouds.6 mph87%30.15 "Hg4 mi
10:50 pm45 °FPassing clouds.7 mph87%30.15 "Hg4 mi
10:20 pm45 °FPassing clouds.7 mph87%30.15 "Hg4 mi
9:50 pm45 °FPassing clouds.7 mph87%30.18 "Hg4 mi
9:20 pm45 °FPartly cloudy.8 mph87%30.15 "Hg4 mi
8:50 pm45 °FPartly cloudy.8 mph87%30.15 "Hg4 mi
8:20 pm43 °FPartly cloudy.6 mph93%30.15 "Hg4 mi
7:50 pm45 °FPassing clouds.6 mph87%30.15 "Hg5 mi
7:20 pm45 °FMostly cloudy.3 mph87%30.15 "Hg5 mi
6:50 pm45 °FOvercast.5 mph87%30.15 "Hg6 mi
6:20 pm45 °FOvercast.6 mph87%30.15 "Hg6 mi
5:50 pm45 °FMostly cloudy.7 mph87%30.15 "Hg5 mi
5:20 pm45 °FLight rain. Mostly cloudy.8 mph87%30.15 "Hg5 mi
4:50 pm45 °FOvercast.7 mph87%30.12 "Hg6 mi
4:20 pm45 °FLight rain. Overcast.8 mph87%30.12 "Hg6 mi
3:50 pm45 °FLight rain. Overcast.10 mph87%30.12 "Hg5 mi
3:20 pm45 °FMore clouds than sun.9 mph87%30.12 "Hg6 mi
2:50 pm45 °FLight rain. More clouds than sun.9 mph87%30.12 "Hg4 mi
2:20 pm45 °FLight rain. Mostly cloudy.6 mph87%30.12 "Hg6 mi
1:50 pm45 °FLight rain. Partly sunny.9 mph87%30.15 "HgN/A
1:20 pm46 °FLight rain. Partly sunny.10 mph76%30.15 "Hg5 mi
12:50 pm46 °FLight rain. Partly sunny.12 mph71%30.15 "HgN/A
12:20 pm46 °FPartly sunny.14 mph71%30.15 "HgN/A
11:50 am46 °FSunny.10 mph71%30.18 "Hg10 mi
11:20 am43 °FLight rain. Broken clouds.10 mph76%30.18 "HgN/A
10:50 am41 °FLight rain. Clear.9 mph81%30.18 "HgN/A
10:20 am41 °FSunny.13 mph76%30.18 "Hg10 mi
9:50 am41 °FSunny.12 mph76%30.18 "Hg10 mi
9:20 am39 °FSunny.12 mph81%30.18 "Hg10 mi
Weather by CustomWeather, © 2017

See weather overviewHow to use our weather pages